DELTA 1 DEB, 7173

Orbit data source: Space-Track

DELTA 1 DEB, 7173 is space debris in SSO originally from a launch on Tue, 06 Nov 1973 UTC launched from the Air Force Western Test Range (AFWTR). Debris objects in space refer to the collection of defunct objects orbiting the Earth. Examples of debris include non-operational satellites, rocket bodies, and fragments generated from explosions, collisions, or faulty payload assembly.

Loading next visibility...
Identifier
7173, 1973-086EK
Orbit
SSO
Country
Flag of USUS
Related business
Manufacturer
Unknown
Mission
Spacecraft
Bus & Motor
Unknown
Mass
Unknown
Launch date (UTC)
1973-11-06 (52 years ago)
Launch vehicle
Unknown
Launch site
Air Force Western Test Range (AFWTR)
Object type
Payload
Rocket body
Debris
Shape & HBR
Unknown shape, 0.1 m
Radar Cross Section
Small (<0.1 m²)

Expand to show TLE details & history
Last TLE update: 19 hours ago

TLE from 19 hours ago
0 DELTA 1 DEB
1  7173U 73086EK  26122.30786000  .00000011  00000-0  45973-3 0  9992
2  7173 102.5419 269.8226 0227042 196.6829 232.1012 12.28332250172273
Epoch: 2026-05-02T07:23Z
TLE epoch observation values (Epoch: 2026-05-02T07:23:19.103Z)
Latitude
63.84883°
Longitude
-88.03683°
Altitude
1,680.408 km
Speed
6.99 km/s
True Right ascension
16h 12m 04s
True Declination
63° 43' 41"
Sunlit
Object was in daylight at epoch
Visualization orbit readout
Latitude
Unknown
Longitude
Unknown
Altitude
Unknown
Speed
Unknown
Apparent Right ascension
Unknown
Apparent Declination
Unknown
Sunlit
N/A
Visualization observer readout
Local Sidereal Time
10:21:41
Azimuth
Unknown
Elevation
Unknown
Doppler factor
Unknown
Orbital elements
Apogee altitude
1,734.171 km
Perigee altitude
1,373.981 km
Semi-major axis
7,932.213 km
Eccentricity
0.0227
Inclination
102.5419°
RAAN
269.8226°
Arg. of periapsis
196.6829°
True anomaly
230.08382°
Mean anomaly
232.1012°
Eccentric anomaly
231.08898°
Mean motion
3.07222 °/min
Orbital period
117.18 mins
BSTAR
0.00045973
Loading maneuver chart data...
Computing Atmospheric mass density...
Loading historical data...
Loading historical data...
Loading historical data...
Loading historical data...
Loading historical data...
Loading historical data...
Loading historical data...

Documentation

Showing up to 5 results
|